Terminal Aerodrome Forecast
Issued by NWS

Current Version | Previous Version | Graphics & Text | Print | Product List | Glossary On
Versions: 1 2 3 4 5 6 7 8 9 10 11 12 13 14 15 16
000
FTUS41 KRNK 220647 AAA
TAFLWB
TAF AMD
KLWB 220647Z 2207/2306 00000KT P6SM BKN027 OVC035
     FM221100 33007KT P6SM SCT040
     FM221300 35007G17KT P6SM FEW250
     FM230100 VRB03KT P6SM SKC=

USA.gov is the U.S. government's official web portal to all federal, state and local government web resources and services.